Location: Sydney
(46.1500°N, 60.1670°W)
Time: 07:34:12
(UTC-03:00)

Iridium 90 - Visible Passes

Search period start: 24 June 2017 00:00
Search period end: 04 July 2017 00:00
Orbit: 747 x 750 km, 86.4° (Epoch: 23 June)

Date Brightness Start Highest point End Pass type
(mag) Time Alt. Az. Time Alt. Az. Time Alt. Az.
25 Jun 8.5 04:29:20 10° E 04:31:29 13° ENE 04:33:37 10° NE visible
28 Jun 8.8 04:04:53 10° E 04:05:33 10° ENE 04:06:13 10° ENE visible
30 Jun 8.1 04:17:45 10° ESE 04:21:09 18° ENE 04:24:33 10° NE visible
02 Jul 7.4 04:32:26 10° SE 04:36:50 31° E 04:41:16 10° NNE visible
03 Jul 8.2 03:52:21 10° ESE 03:55:12 15° ENE 03:58:02 10° NE visible
